AirSardinia Virtual Manager

AirSardinia Virtual La prima compagnia sarda di volo simulato




 METAR AND TAF INFORMATION
METAR FOR LGST
ADDS - METARS form results

(1301 UTC 18 August 2019)
Data provider http://aviationweather.gov/metar/data/
 
Forecast for: LGST (SITIA AIRPORT , GR)
Text: TAF LGST 181100Z 1812/1821 30023G35KT 9999 FEW025
Forecast period: 1200 to 2100 UTC 18 August 2019
Forecast type: FROM: standard forecast or significant change
Winds: from the WNW (300 degrees) at 26 MPH (23 knots; 11.8 m/s)
gusting to 40 MPH (35 knots; 18.0 m/s)
Visibility: 6 or more miles 10+ km)
Ceiling: at least 12,000 feet AGL
Clouds: few clouds at 2500 feet AGL
Weather: no significant weather forecast for this period

 AIRPORT MAP

 RUNWAY INFORMATION
Runway 05 Runway length 6804 ft Runway width 148 ft
Runway elevation 376 ft Runway displaced threshold 0 ft Runway heading 51
Runway 23 Runway length 6804 ft Runway width 148 ft
Runway elevation 316 ft Runway displaced threshold 0 ft Runway heading 231

 AIRPORT FREQUENCIES
Type A/G Name RDO Frequency 563.7 MHz
Type AFIS Name INFO Frequency 122.6 MHz

 AIRPORT NEAR NAVIGATION AIDS
Type VOR-DME Name Sitia Frequency 112.9 MHz
Type VOR-DME Name Sitia Frequency 113.3 MHz